Total_Precipitation_Accumulation
1.70 1.82 1.66 1.53 1.35 1.60 1.85 1.89 1.73 1.88 1.91 1.96 1.92 1.90 1.93 1.67 1.48 1.38 1.45 1.64 1.59 1.55 1.63 1.67 1.63 1.55 1.50 1.36 1.22 1.04 0.91 0.86 0.77 0.67 0.58 0.49 0.41 0.32 0.27 0.18 0.13 0.08 0.06
1.55 1.61 1.55 1.46 1.39 1.55 1.74 1.76 1.74 1.97 2.06 2.05 1.78 1.68 1.68 1.72 1.62 1.41 1.52 1.66 1.67 1.53 1.59 1.78 1.84 1.81 1.82 1.68 1.47 1.30 1.13 0.98 0.79 0.61 0.55 0.53 0.45 0.35 0.36 0.38 0.41 0.15 0.06
1.24 1.36 1.39 1.34 1.37 1.43 1.46 1.44 1.50 1.69 1.67 1.60 1.46 1.42 1.48 1.52 1.58 1.54 1.37 1.43 1.57 1.62 1.55 1.67 1.78 1.82 1.95 1.93 1.78 1.55 1.34 1.11 0.87 0.62 0.48 0.47 0.43 0.32 0.28 0.35 0.39 0.22 0.09
0.96 1.06 1.04 1.05 1.10 1.13 1.13 1.16 1.21 1.32 1.40 1.50 1.50 1.39 1.52 1.58 1.51 1.58 1.54 1.43 1.61 1.52 1.70 1.83 1.80 1.74 1.93 2.13 2.14 1.95 1.63 1.25 0.98 0.76 0.58 0.47 0.43 0.35 0.28 0.26 0.27 0.24 0.14
0.86 0.92 0.93 0.95 0.84 0.86 0.89 0.84 0.98 1.11 1.21 1.27 1.21 1.26 1.23 1.29 1.29 1.25 1.39 1.27 1.36 1.47 1.62 1.69 1.78 1.72 1.96 2.33 2.61 2.68 2.33 1.70 1.24 1.02 0.90 0.76 0.61 0.47 0.38 0.36 0.30 0.24 0.19
0.82 0.80 0.75 0.70 0.62 0.67 0.75 0.79 0.93 0.97 0.98 1.03 0.94 1.01 0.97 0.91 0.98 1.03 0.99 1.04 1.10 1.06 1.29 1.49 1.62 1.38 1.70 2.16 2.46 2.71 2.79 2.45 1.91 1.45 1.24 1.11 0.97 0.71 0.45 0.37 0.35 0.30 0.25
0.76 0.71 0.61 0.63 0.53 0.54 0.58 0.57 0.65 0.72 0.74 0.79 0.93 0.97 0.83 0.75 0.78 0.79 0.74 0.80 0.84 0.95 1.22 1.40 1.45 1.40 1.25 1.29 1.43 1.85 2.36 2.71 2.55 2.00 1.60 1.39 1.28 0.99 0.62 0.44 0.37 0.35 0.31
0.63 0.57 0.62 0.56 0.53 0.56 0.51 0.51 0.57 0.63 0.65 0.66 0.76 0.84 0.80 0.80 0.76 0.59 0.67 0.68 0.73 0.90 1.04 1.03 1.13 1.28 1.11 1.25 0.94 1.11 1.65 2.11 2.54 2.47 2.02 1.59 1.39 1.18 0.91 0.69 0.51 0.40 0.37
0.49 0.55 0.58 0.59 0.57 0.49 0.48 0.51 0.48 0.52 0.53 0.52 0.57 0.68 0.74 0.75 0.68 0.59 0.58 0.58 0.66 0.78 0.82 0.92 0.85 0.87 0.97 1.13 1.10 0.94 1.19 1.39 1.90 2.44 2.38 1.91 1.50 1.24 1.10 0.99 0.84 0.61 0.49
0.44 0.44 0.48 0.57 0.54 0.47 0.52 0.39 0.38 0.44 0.49 0.43 0.42 0.48 0.48 0.56 0.65 0.69 0.60 0.57 0.61 0.61 0.62 0.67 0.69 0.73 0.77 0.91 0.96 0.74 0.68 0.86 1.34 1.95 2.28 2.15 1.80 1.40 1.25 1.28 1.45 1.34 0.96
0.52 0.41 0.39 0.46 0.50 0.51 0.58 0.48 0.47 0.42 0.41 0.37 0.36 0.42 0.41 0.38 0.43 0.57 0.65 0.61 0.57 0.46 0.45 0.46 0.48 0.55 0.60 0.71 0.85 0.70 0.56 0.66 0.85 1.23 1.56 1.80 1.82 1.70 1.53 1.53 1.88 2.10 1.90
0.58 0.53 0.50 0.55 0.56 0.52 0.54 0.51 0.52 0.49 0.47 0.44 0.35 0.36 0.50 0.46 0.36 0.43 0.47 0.54 0.52 0.36 0.35 0.39 0.41 0.47 0.54 0.67 0.67 0.57 0.63 0.71 0.72 0.78 0.95 1.16 1.38 1.50 1.57 1.69 1.90 2.19 2.28
0.50 0.51 0.53 0.59 0.60 0.59 0.54 0.49 0.48 0.51 0.56 0.57 0.44 0.34 0.36 0.46 0.41 0.36 0.37 0.36 0.42 0.39 0.42 0.43 0.45 0.55 0.63 0.87 0.80 0.68 0.67 0.71 0.70 0.70 0.70 0.74 0.84 0.98 1.09 1.28 1.54 1.81 2.08
0.57 0.57 0.53 0.51 0.53 0.53 0.51 0.48 0.41 0.41 0.48 0.55 0.55 0.56 0.50 0.38 0.45 0.40 0.34 0.39 0.47 0.53 0.59 0.59 0.65 0.75 0.86 0.97 0.98 0.78 0.62 0.53 0.45 0.45 0.45 0.47 0.51 0.58 0.69 0.79 0.93 1.13 1.30
0.60 0.58 0.51 0.46 0.44 0.47 0.50 0.50 0.44 0.43 0.43 0.40 0.45 0.59 0.60 0.46 0.42 0.42 0.40 0.46 0.64 0.65 0.69 0.82 0.97 1.04 0.96 0.95 0.88 0.78 0.61 0.50 0.42 0.36 0.35 0.36 0.37 0.39 0.44 0.48 0.53 0.65 0.76
0.58 0.57 0.51 0.46 0.43 0.42 0.44 0.47 0.46 0.49 0.53 0.51 0.48 0.55 0.66 0.66 0.59 0.55 0.53 0.57 0.70 0.72 0.76 0.82 0.98 1.01 0.90 0.72 0.69 0.72 0.61 0.56 0.47 0.38 0.32 0.32 0.34 0.34 0.33 0.35 0.35 0.35 0.39
0.60 0.57 0.55 0.55 0.48 0.42 0.43 0.46 0.47 0.50 0.55 0.62 0.66 0.65 0.65 0.75 0.83 0.76 0.71 0.71 0.75 0.82 0.84 0.83 0.96 1.00 0.88 0.69 0.62 0.65 0.64 0.64 0.52 0.48 0.39 0.34 0.33 0.33 0.33 0.34 0.35 0.33 0.31
0.67 0.63 0.59 0.57 0.48 0.43 0.45 0.44 0.42 0.46 0.56 0.67 0.80 0.93 0.93 0.86 0.85 0.81 0.79 0.80 0.86 1.00 1.01 0.96 0.99 1.05 0.98 0.86 0.76 0.67 0.56 0.56 0.59 0.61 0.52 0.43 0.37 0.35 0.33 0.32 0.32 0.32 0.32
0.75 0.76 0.68 0.63 0.57 0.55 0.56 0.53 0.48 0.48 0.50 0.55 0.67 0.92 1.11 1.27 1.19 0.99 0.88 0.83 0.89 1.00 1.13 1.08 1.05 1.19 1.18 1.07 0.92 0.73 0.59 0.56 0.50 0.53 0.53 0.48 0.41 0.38 0.35 0.33 0.31 0.30 0.27
0.78 0.83 0.82 0.79 0.73 0.67 0.64 0.62 0.65 0.65 0.61 0.58 0.63 0.71 0.82 1.03 1.21 1.25 1.11 0.96 0.92 1.00 1.11 1.13 1.21 1.43 1.45 1.30 1.07 0.86 0.75 0.64 0.55 0.45 0.46 0.47 0.44 0.39 0.36 0.34 0.31 0.28 0.27
0.84 0.95 0.99 0.97 0.92 0.86 0.74 0.76 0.84 0.76 0.77 0.73 0.69 0.67 0.62 0.68 0.82 0.98 1.06 1.14 1.11 1.06 1.10 1.17 1.38 1.78 1.79 1.54 1.17 0.96 0.90 0.84 0.71 0.58 0.52 0.43 0.41 0.38 0.36 0.38 0.38 0.35 0.30
1.16 1.19 1.16 1.15 1.11 0.94 0.90 0.85 0.86 0.85 0.89 0.88 0.83 0.76 0.65 0.58 0.58 0.66 0.77 0.90 1.05 1.09 1.09 1.15 1.34 1.63 1.79 1.67 1.41 1.20 0.99 0.85 0.76 0.68 0.62 0.54 0.47 0.43 0.37 0.33 0.37 0.37 0.35
1.30 1.31 1.32 1.31 1.27 1.23 1.11 0.91 0.84 0.83 0.85 0.89 0.94 0.94 0.73 0.55 0.58 0.60 0.66 0.68 0.73 0.82 0.93 1.02 1.16 1.37 1.66 1.78 1.61 1.23 1.07 0.97 0.79 0.69 0.68 0.64 0.59 0.53 0.44 0.40 0.43 0.36 0.36
1.18 1.15 1.11 1.09 1.14 1.10 1.01 0.81 0.73 0.70 0.75 0.78 0.81 0.81 0.76 0.63 0.59 0.60 0.63 0.61 0.59 0.58 0.63 0.72 0.85 1.07 1.34 1.66 1.81 1.56 1.37 1.21 1.00 0.85 0.72 0.67 0.67 0.60 0.51 0.45 0.49 0.43 0.36
1.01 0.94 0.90 0.90 0.94 0.97 0.92 0.76 0.71 0.66 0.69 0.68 0.68 0.71 0.73 0.66 0.59 0.48 0.50 0.51 0.51 0.50 0.49 0.53 0.62 0.79 1.04 1.34 1.68 1.80 1.51 1.18 1.03 0.86 0.73 0.65 0.60 0.64 0.62 0.51 0.49 0.52 0.43
1.11 1.05 1.00 0.97 0.95 1.00 1.00 0.82 0.74 0.69 0.73 0.74 0.83 0.85 0.79 0.69 0.59 0.44 0.44 0.49 0.48 0.45 0.49 0.50 0.50 0.57 0.70 0.94 1.29 1.47 1.48 1.20 0.96 0.84 0.63 0.56 0.54 0.57 0.61 0.54 0.43 0.42 0.42